STARLINK-31002, 58495

Orbit data source: Space-Track

STARLINK-31002, 58495 is a payload satellite owned by SpaceX/Seattle (US) in LEO that was launched on Sun, 03 Dec 2023 UTC via an FALCON 9 launch vehicle from the Air Force Eastern Test Range (AFETR). Payload-class satellites include a variety of spacecraft equipped with specific instruments for various scientific and technological missions. These include communications satellites like Starlink; space stations such as the ISS; scientific satellites like the Hubble; Earth observation satellites from companies like Planet Labs, Umbra, and HawkEye 360; GPS; miniature CubeSats for education and research; and military/defense satellites.

Loading next visibility...
Identifier
58495, 2023-186Y
Orbit
LEO
Country
Flag of USUS
Related business
Manufacturer
SpaceX/Seattle
Mission
Operational Commercial Communications
Bus & Motor
STARLINK V2M, Unknown motor
Mass
730 kg wet, ~700 kg dry
Launch date (UTC)
2023-12-03 (3 years ago)
Launch vehicle
FALCON 9
Launch site
Air Force Eastern Test Range (AFETR)
Object type
Payload
Rocket body
Debris
Shape & HBR
Box + 2 Pan, 17.7 m
Radar Cross Section
33.884 m², Large (>1 m²)

Expand to show TLE details & history
Last TLE update: 2 days ago

TLE from 2 days ago
0 STARLINK-31002
1 58495U 23186Y   26171.08666920  .00000354  00000-0  22390-4 0  9997
2 58495  43.0038 205.6068 0001642 270.7869  89.2795 15.27576806141711
Epoch: 2026-06-20T02:04Z
TLE epoch observation values (Epoch: 2026-06-20T02:04:48.218Z)
Latitude
-0.00001°
Longitude
-93.90045°
Altitude
482.821 km
Speed
7.626 km/s
True Right ascension
13h 42m 25s
True Declination
0° 00' 00"
Sunlit
Object was in full shadow at epoch
Visualization orbit readout
Latitude
Unknown
Longitude
Unknown
Altitude
Unknown
Speed
Unknown
Apparent Right ascension
Unknown
Apparent Declination
Unknown
Sunlit
N/A
Visualization observer readout
Local Sidereal Time
21:26:39
Azimuth
Unknown
Elevation
Unknown
Doppler factor
Unknown
Orbital elements
Apogee altitude
486.13 km
Perigee altitude
483.876 km
Semi-major axis
6,863.14 km
Eccentricity
0.00016
Inclination
43.0038°
RAAN
205.6068°
Arg. of periapsis
270.7869°
True anomaly
89.29831°
Mean anomaly
89.2795°
Eccentric anomaly
89.28891°
Mean motion
3.81732 °/min
Orbital period
94.31 mins
BSTAR
0.00002239
Loading maneuver chart data...
Computing Atmospheric mass density...
Loading historical data...
Loading historical data...
Loading historical data...
Loading historical data...
Loading historical data...
Loading historical data...
Loading historical data...

Documentation

Showing up to 5 results
|